Location: Eastlake (historical)
(39.0077°N, 122.6678°W)
Time: 12:09:39
(UTC+00:00)

Lacrosse 5 - Pass Details

Date: 25 November 2020
Orbit: 713 x 726 km, 57.0° (Epoch: 22 January)

Event Time Altitude Azimuth Distance (km) Brightness Sun altitude
Exits shadow 12:49:45 15° 190° (S) 1,871 4.0 -25.9°
Maximum altitude 12:53:33 41° 125° (SE) 1,025 3.0 -25.2°
Drops below altitude 10° 12:58:16 10° 56° (ENE) 2,192 5.0 -24.3°
Sets 13:00:45 0° 50° (NE) 3,115 5.7 -23.8°
